Year,Month,Day,Hour,Minute,Value (Times are PST for windspeed in km/hr)
2018,12,09,00,00,3.30
2018,12,09,00,01,7.20
2018,12,09,00,02,3.40
2018,12,09,00,03,6.00
2018,12,09,00,04,5.00
2018,12,09,00,05,1.20
2018,12,09,00,06,0.00
2018,12,09,00,07,0.00
2018,12,09,00,08,0.00
2018,12,09,00,09,0.00
2018,12,09,00,10,0.00
2018,12,09,00,11,0.70
2018,12,09,00,12,1.50
2018,12,09,00,13,0.00
2018,12,09,00,14,0.00
2018,12,09,00,15,0.00
2018,12,09,00,16,0.00
2018,12,09,00,17,3.80
2018,12,09,00,18,3.10
2018,12,09,00,19,1.00
2018,12,09,00,20,6.40
2018,12,09,00,21,4.00
2018,12,09,00,22,3.10
2018,12,09,00,23,4.60
2018,12,09,00,24,3.20
2018,12,09,00,25,9.00
2018,12,09,00,26,2.70
2018,12,09,00,27,2.10
2018,12,09,00,28,2.70
2018,12,09,00,29,0.60
2018,12,09,00,30,0.50
2018,12,09,00,31,5.80
2018,12,09,00,32,0.80
2018,12,09,00,33,2.70
2018,12,09,00,34,2.10
2018,12,09,00,35,5.10
2018,12,09,00,36,0.40
2018,12,09,00,37,0.00
2018,12,09,00,38,1.40
2018,12,09,00,39,2.10
2018,12,09,00,40,2.60
2018,12,09,00,41,1.30
2018,12,09,00,42,0.80
2018,12,09,00,43,0.00
2018,12,09,00,44,0.00
2018,12,09,00,45,0.00
2018,12,09,00,46,4.60
2018,12,09,00,47,12.00
2018,12,09,00,48,4.00
2018,12,09,00,49,4.50
2018,12,09,00,50,3.50
2018,12,09,00,51,0.30
2018,12,09,00,52,4.10
2018,12,09,00,53,7.20
2018,12,09,00,54,6.40
2018,12,09,00,55,1.90
2018,12,09,00,56,2.70
2018,12,09,00,57,2.10
2018,12,09,00,58,6.20
2018,12,09,00,59,0.00
2018,12,09,01,00,0.10
2018,12,09,01,01,0.00
2018,12,09,01,02,0.00
2018,12,09,01,03,0.00
2018,12,09,01,04,0.00
2018,12,09,01,05,1.90
2018,12,09,01,06,2.40
2018,12,09,01,07,0.00
2018,12,09,01,08,0.00
2018,12,09,01,09,0.60
2018,12,09,01,10,5.80
2018,12,09,01,11,3.30
2018,12,09,01,12,3.40
2018,12,09,01,13,1.10
2018,12,09,01,14,0.00
2018,12,09,01,15,3.40
2018,12,09,01,16,3.10
2018,12,09,01,17,0.00
2018,12,09,01,18,1.40
2018,12,09,01,19,0.20
2018,12,09,01,20,0.00
2018,12,09,01,21,0.30
2018,12,09,01,22,3.40
2018,12,09,01,23,0.00
2018,12,09,01,24,0.00
2018,12,09,01,25,0.00
2018,12,09,01,26,0.00
2018,12,09,01,27,0.00
2018,12,09,01,28,2.90
2018,12,09,01,29,0.00
2018,12,09,01,30,0.00
2018,12,09,01,31,0.00
2018,12,09,01,32,0.20
2018,12,09,01,33,0.80
2018,12,09,01,34,4.80
2018,12,09,01,35,1.40
2018,12,09,01,36,5.50
2018,12,09,01,37,0.70
2018,12,09,01,38,5.50
2018,12,09,01,39,3.60
2018,12,09,01,40,2.70
2018,12,09,01,41,4.10
2018,12,09,01,42,10.50
2018,12,09,01,43,4.00
2018,12,09,01,44,5.40
2018,12,09,01,45,12.60
2018,12,09,01,46,3.50
2018,12,09,01,47,9.10
2018,12,09,01,48,6.40
2018,12,09,01,49,12.40
2018,12,09,01,50,3.90
2018,12,09,01,51,19.80
2018,12,09,01,52,12.10
2018,12,09,01,53,17.30
2018,12,09,01,54,15.30
2018,12,09,01,55,7.20
2018,12,09,01,56,8.80
2018,12,09,01,57,5.70
2018,12,09,01,58,6.40
2018,12,09,01,59,11.40
2018,12,09,02,00,11.10
2018,12,09,02,01,7.70
2018,12,09,02,02,2.80
2018,12,09,02,03,5.10
2018,12,09,02,04,4.30
2018,12,09,02,05,11.20
2018,12,09,02,06,15.30
2018,12,09,02,07,11.40
2018,12,09,02,08,12.20
2018,12,09,02,09,21.00
2018,12,09,02,10,17.10
2018,12,09,02,11,10.30
2018,12,09,02,12,9.70
2018,12,09,02,13,12.60
2018,12,09,02,14,20.00
2018,12,09,02,15,26.00
2018,12,09,02,16,17.00
2018,12,09,02,17,15.60
2018,12,09,02,18,22.00
2018,12,09,02,19,17.60
2018,12,09,02,20,15.60
2018,12,09,02,21,17.60
2018,12,09,02,22,16.90
2018,12,09,02,23,23.10
2018,12,09,02,24,15.90
2018,12,09,02,25,17.30
2018,12,09,02,26,20.40
2018,12,09,02,27,12.20
2018,12,09,02,28,19.50
2018,12,09,02,29,15.90
2018,12,09,02,30,20.30
2018,12,09,02,31,20.20
2018,12,09,02,32,17.50
2018,12,09,02,33,16.90
2018,12,09,02,34,19.80
2018,12,09,02,35,23.00
2018,12,09,02,36,24.20
2018,12,09,02,37,22.50
2018,12,09,02,38,22.00
2018,12,09,02,39,19.20
2018,12,09,02,40,14.60
2018,12,09,02,41,20.50
2018,12,09,02,42,17.00
2018,12,09,02,43,14.10
2018,12,09,02,44,21.70
2018,12,09,02,45,20.10
2018,12,09,02,46,21.10
2018,12,09,02,47,27.70
2018,12,09,02,48,14.90
2018,12,09,02,49,19.90
2018,12,09,02,50,22.30
2018,12,09,02,51,27.40
2018,12,09,02,52,20.90
2018,12,09,02,53,16.80
2018,12,09,02,54,24.10
2018,12,09,02,55,15.90
2018,12,09,02,56,19.60
2018,12,09,02,57,21.20
2018,12,09,02,58,20.20
2018,12,09,02,59,24.20
2018,12,09,03,00,19.40
2018,12,09,03,01,19.90
2018,12,09,03,02,26.40
2018,12,09,03,03,22.10
2018,12,09,03,04,21.50
2018,12,09,03,05,19.80
2018,12,09,03,06,18.40
2018,12,09,03,07,18.10
2018,12,09,03,08,22.50
2018,12,09,03,09,23.90
2018,12,09,03,10,25.20
2018,12,09,03,11,30.10
2018,12,09,03,12,29.10
2018,12,09,03,13,26.40
2018,12,09,03,14,27.60
2018,12,09,03,15,26.60
2018,12,09,03,16,29.70
2018,12,09,03,17,27.40
2018,12,09,03,18,28.10
2018,12,09,03,19,21.40
2018,12,09,03,20,22.40
2018,12,09,03,21,23.00
2018,12,09,03,22,27.00
2018,12,09,03,23,25.30
2018,12,09,03,24,31.00
2018,12,09,03,25,25.90
2018,12,09,03,26,27.00
2018,12,09,03,27,27.50
2018,12,09,03,28,23.40
2018,12,09,03,29,33.90
2018,12,09,03,30,28.60
2018,12,09,03,31,29.60
2018,12,09,03,32,26.60
2018,12,09,03,33,24.80
2018,12,09,03,34,27.50
2018,12,09,03,35,26.40
2018,12,09,03,36,27.40
2018,12,09,03,37,24.70
2018,12,09,03,38,33.30
2018,12,09,03,39,25.40
2018,12,09,03,40,25.70
2018,12,09,03,41,27.10
2018,12,09,03,42,30.40
2018,12,09,03,43,16.00
2018,12,09,03,44,28.40
2018,12,09,03,45,27.40
2018,12,09,03,46,29.10
2018,12,09,03,47,20.20
2018,12,09,03,48,24.10
2018,12,09,03,49,25.80
2018,12,09,03,50,18.20
2018,12,09,03,51,17.90
2018,12,09,03,52,23.40
2018,12,09,03,53,30.30
2018,12,09,03,54,21.70
2018,12,09,03,55,27.00
2018,12,09,03,56,24.40
2018,12,09,03,57,27.50
2018,12,09,03,58,24.30
2018,12,09,03,59,29.00
2018,12,09,04,00,26.30
2018,12,09,04,01,27.60
2018,12,09,04,02,34.40
2018,12,09,04,03,22.80
2018,12,09,04,04,28.60
2018,12,09,04,05,30.70
2018,12,09,04,06,25.70
2018,12,09,04,07,32.20
2018,12,09,04,08,30.70
2018,12,09,04,09,24.80
2018,12,09,04,10,26.40
2018,12,09,04,11,36.80
2018,12,09,04,12,31.30
2018,12,09,04,13,31.90
2018,12,09,04,14,26.40
2018,12,09,04,15,34.00
2018,12,09,04,16,29.40
2018,12,09,04,17,27.60
2018,12,09,04,18,32.80
2018,12,09,04,19,38.60
2018,12,09,04,20,29.10
2018,12,09,04,21,35.10
2018,12,09,04,22,33.10
2018,12,09,04,23,34.40
2018,12,09,04,24,32.80
2018,12,09,04,25,31.80
2018,12,09,04,26,26.30
2018,12,09,04,27,26.80
2018,12,09,04,28,28.70
2018,12,09,04,29,29.00
2018,12,09,04,30,24.30
2018,12,09,04,31,27.30
2018,12,09,04,32,25.40
2018,12,09,04,33,23.40
2018,12,09,04,34,26.50
2018,12,09,04,35,23.70
2018,12,09,04,36,27.00
2018,12,09,04,37,21.40
2018,12,09,04,38,20.00
2018,12,09,04,39,25.90
2018,12,09,04,40,29.00
2018,12,09,04,41,29.60
2018,12,09,04,42,21.90
2018,12,09,04,43,17.50
2018,12,09,04,44,29.70
2018,12,09,04,45,23.50
2018,12,09,04,46,24.50
2018,12,09,04,47,15.50
2018,12,09,04,48,14.00
2018,12,09,04,49,23.80
2018,12,09,04,50,20.90
2018,12,09,04,51,18.80
2018,12,09,04,52,19.90
2018,12,09,04,53,30.40
2018,12,09,04,54,24.20
2018,12,09,04,55,23.40
2018,12,09,04,56,29.00
2018,12,09,04,57,24.80
2018,12,09,04,58,25.80
2018,12,09,04,59,18.70
2018,12,09,05,00,22.90
2018,12,09,05,01,25.80
2018,12,09,05,02,23.10
2018,12,09,05,03,22.70
2018,12,09,05,04,26.20
2018,12,09,05,05,19.70
2018,12,09,05,06,20.80
2018,12,09,05,07,20.40
2018,12,09,05,08,17.80
2018,12,09,05,09,19.40
2018,12,09,05,10,22.20
2018,12,09,05,11,22.00
2018,12,09,05,12,21.00
2018,12,09,05,13,24.20
2018,12,09,05,14,25.00
2018,12,09,05,15,23.30
2018,12,09,05,16,25.90
2018,12,09,05,17,23.90
2018,12,09,05,18,26.20
2018,12,09,05,19,18.30
2018,12,09,05,20,22.40
2018,12,09,05,21,27.60
2018,12,09,05,22,27.10
2018,12,09,05,23,24.80
2018,12,09,05,24,19.50
2018,12,09,05,25,30.30
2018,12,09,05,26,23.70
2018,12,09,05,27,25.40
2018,12,09,05,28,27.80
2018,12,09,05,29,28.90
2018,12,09,05,30,22.40
2018,12,09,05,31,21.60
2018,12,09,05,32,18.60
2018,12,09,05,33,20.80
2018,12,09,05,34,16.90
2018,12,09,05,35,15.80
2018,12,09,05,36,27.20
2018,12,09,05,37,31.00
2018,12,09,05,38,25.20
2018,12,09,05,39,21.80
2018,12,09,05,40,22.20
2018,12,09,05,41,16.30
2018,12,09,05,42,16.10
2018,12,09,05,43,20.70
2018,12,09,05,44,16.20
2018,12,09,05,45,17.90
2018,12,09,05,46,23.90
2018,12,09,05,47,19.30
2018,12,09,05,48,25.00
2018,12,09,05,49,18.30
2018,12,09,05,50,17.40
2018,12,09,05,51,23.70
2018,12,09,05,52,21.60
2018,12,09,05,53,25.70
2018,12,09,05,54,21.10
2018,12,09,05,55,24.50
2018,12,09,05,56,18.90
2018,12,09,05,57,17.50
2018,12,09,05,58,21.60
2018,12,09,05,59,19.10
2018,12,09,06,00,17.00
2018,12,09,06,01,20.80
2018,12,09,06,02,15.10
2018,12,09,06,03,12.70
2018,12,09,06,04,17.90
2018,12,09,06,05,20.70
2018,12,09,06,06,19.50
2018,12,09,06,07,20.30
2018,12,09,06,08,25.90
2018,12,09,06,09,24.90
2018,12,09,06,10,22.20
2018,12,09,06,11,26.80
2018,12,09,06,12,22.60
2018,12,09,06,13,20.90
2018,12,09,06,14,19.20
2018,12,09,06,15,21.50
2018,12,09,06,16,22.70
2018,12,09,06,17,22.80
2018,12,09,06,18,24.60
2018,12,09,06,19,22.70
2018,12,09,06,20,21.80
2018,12,09,06,21,26.70
2018,12,09,06,22,23.60
2018,12,09,06,23,20.10
2018,12,09,06,24,21.80
2018,12,09,06,25,17.40
2018,12,09,06,26,20.40
2018,12,09,06,27,16.10
2018,12,09,06,28,17.00
2018,12,09,06,29,23.50
2018,12,09,06,30,18.50
2018,12,09,06,31,19.10
2018,12,09,06,32,15.20
2018,12,09,06,33,14.40
2018,12,09,06,34,19.80
2018,12,09,06,35,18.50
2018,12,09,06,36,16.30
2018,12,09,06,37,19.20
2018,12,09,06,38,20.40
2018,12,09,06,39,14.90
2018,12,09,06,40,15.50
2018,12,09,06,41,18.90
2018,12,09,06,42,18.30
2018,12,09,06,43,16.60
2018,12,09,06,44,11.90
2018,12,09,06,45,13.40
2018,12,09,06,46,17.80
2018,12,09,06,47,16.50
2018,12,09,06,48,15.50
2018,12,09,06,49,13.10
2018,12,09,06,50,15.60
2018,12,09,06,51,14.40
2018,12,09,06,52,16.30
2018,12,09,06,53,9.10
2018,12,09,06,54,13.60
2018,12,09,06,55,5.20
2018,12,09,06,56,19.90
2018,12,09,06,57,11.80
2018,12,09,06,58,20.90
2018,12,09,06,59,8.50
2018,12,09,07,00,15.50
2018,12,09,07,01,11.00
2018,12,09,07,02,13.00
2018,12,09,07,03,9.70
2018,12,09,07,04,16.50
2018,12,09,07,05,15.20
2018,12,09,07,06,11.10
2018,12,09,07,07,13.80
2018,12,09,07,08,15.00
2018,12,09,07,09,7.60
2018,12,09,07,10,12.60
2018,12,09,07,11,10.20
2018,12,09,07,12,8.80
2018,12,09,07,13,14.50
2018,12,09,07,14,13.00
2018,12,09,07,15,13.50
2018,12,09,07,16,13.30
2018,12,09,07,17,10.30
2018,12,09,07,18,13.40
2018,12,09,07,19,15.70
2018,12,09,07,20,18.80
2018,12,09,07,21,16.20
2018,12,09,07,22,11.10
2018,12,09,07,23,13.00
2018,12,09,07,24,15.20
2018,12,09,07,25,18.70
2018,12,09,07,26,19.40
2018,12,09,07,27,15.10
2018,12,09,07,28,15.00
2018,12,09,07,29,15.20
2018,12,09,07,30,14.80
2018,12,09,07,31,19.20
2018,12,09,07,32,17.50
2018,12,09,07,33,21.70
2018,12,09,07,34,15.40
2018,12,09,07,35,9.70
2018,12,09,07,36,7.60
2018,12,09,07,37,15.70
2018,12,09,07,38,11.60
2018,12,09,07,39,5.50
2018,12,09,07,40,7.00
2018,12,09,07,41,13.50
2018,12,09,07,42,8.00
2018,12,09,07,43,15.20
2018,12,09,07,44,11.70
2018,12,09,07,45,16.30
2018,12,09,07,46,6.00
2018,12,09,07,47,5.00
2018,12,09,07,48,7.70
2018,12,09,07,49,16.00
2018,12,09,07,50,14.60
2018,12,09,07,51,14.20
2018,12,09,07,52,19.50
2018,12,09,07,53,10.20
2018,12,09,07,54,10.50
2018,12,09,07,55,10.60
2018,12,09,07,56,11.70
2018,12,09,07,57,9.20
2018,12,09,07,58,15.60
2018,12,09,07,59,11.00
2018,12,09,08,00,16.00
2018,12,09,08,01,16.60
2018,12,09,08,02,10.50
2018,12,09,08,03,13.80
2018,12,09,08,04,20.40
2018,12,09,08,05,13.30
2018,12,09,08,06,18.50
2018,12,09,08,07,19.90
2018,12,09,08,08,13.30
2018,12,09,08,09,9.60
2018,12,09,08,10,13.80
2018,12,09,08,11,19.20
2018,12,09,08,12,17.10
2018,12,09,08,13,14.30
2018,12,09,08,14,10.30
2018,12,09,08,15,8.10
2018,12,09,08,16,19.30
2018,12,09,08,17,16.00
2018,12,09,08,18,14.80
2018,12,09,08,19,7.70
2018,12,09,08,20,8.00
2018,12,09,08,21,10.00
2018,12,09,08,22,10.10
2018,12,09,08,23,14.40
2018,12,09,08,24,15.50
2018,12,09,08,25,8.90
2018,12,09,08,26,10.20
2018,12,09,08,27,9.30
2018,12,09,08,28,15.60
2018,12,09,08,29,7.40
2018,12,09,08,30,14.10
2018,12,09,08,31,15.80
2018,12,09,08,32,8.90
2018,12,09,08,33,15.10
2018,12,09,08,34,15.30
2018,12,09,08,35,14.20
2018,12,09,08,36,11.80
2018,12,09,08,37,7.80
2018,12,09,08,38,6.70
2018,12,09,08,39,11.60
2018,12,09,08,40,18.50
2018,12,09,08,41,11.60
2018,12,09,08,42,12.60
2018,12,09,08,43,8.00
2018,12,09,08,44,9.60
2018,12,09,08,45,16.00
2018,12,09,08,46,13.30
2018,12,09,08,47,18.70
2018,12,09,08,48,11.40
2018,12,09,08,49,18.10
2018,12,09,08,50,10.60
2018,12,09,08,51,9.80
2018,12,09,08,52,5.20
2018,12,09,08,53,9.10
2018,12,09,08,54,14.30
2018,12,09,08,55,10.50
2018,12,09,08,56,19.80
2018,12,09,08,57,8.20
2018,12,09,08,58,5.40
2018,12,09,08,59,8.80
2018,12,09,09,00,15.80
2018,12,09,09,01,11.20
2018,12,09,09,02,12.40
2018,12,09,09,03,3.50
2018,12,09,09,04,9.70
2018,12,09,09,05,7.30
2018,12,09,09,06,5.60
2018,12,09,09,07,7.30
2018,12,09,09,08,7.20
2018,12,09,09,09,8.70
2018,12,09,09,10,7.10
2018,12,09,09,11,8.70
2018,12,09,09,12,10.50
2018,12,09,09,13,11.40
2018,12,09,09,14,7.40
2018,12,09,09,15,12.80
2018,12,09,09,16,8.20
2018,12,09,09,17,11.60
2018,12,09,09,18,11.00
2018,12,09,09,19,9.60
2018,12,09,09,20,9.50
2018,12,09,09,21,5.30
2018,12,09,09,22,18.00
2018,12,09,09,23,9.00
2018,12,09,09,24,8.10
2018,12,09,09,25,4.60
2018,12,09,09,26,9.80
2018,12,09,09,27,6.40
2018,12,09,09,28,10.40
2018,12,09,09,29,7.80
2018,12,09,09,30,7.30
2018,12,09,09,31,9.70
2018,12,09,09,32,7.40
2018,12,09,09,33,5.10
2018,12,09,09,34,8.70
2018,12,09,09,35,10.40
2018,12,09,09,36,6.80
2018,12,09,09,37,6.50
2018,12,09,09,38,12.50
2018,12,09,09,39,8.20
2018,12,09,09,40,9.70
2018,12,09,09,41,9.30
2018,12,09,09,42,6.80
2018,12,09,09,43,8.50
2018,12,09,09,44,12.20
2018,12,09,09,45,8.60
2018,12,09,09,46,3.30
2018,12,09,09,47,6.40
2018,12,09,09,48,6.40
2018,12,09,09,49,8.10
2018,12,09,09,50,4.90
2018,12,09,09,51,6.20
2018,12,09,09,52,2.70
2018,12,09,09,53,0.00
2018,12,09,09,54,11.40
2018,12,09,09,55,7.40
2018,12,09,09,56,7.30
2018,12,09,09,57,3.40
2018,12,09,09,58,5.80
2018,12,09,09,59,6.00
2018,12,09,10,00,4.00
2018,12,09,10,01,6.00
2018,12,09,10,02,8.40
2018,12,09,10,03,0.60
2018,12,09,10,04,5.30
2018,12,09,10,05,7.00
2018,12,09,10,06,11.20
2018,12,09,10,07,5.10
2018,12,09,10,08,2.40
2018,12,09,10,09,9.20
2018,12,09,10,10,6.70
2018,12,09,10,11,2.40
2018,12,09,10,12,8.70
2018,12,09,10,13,7.00
2018,12,09,10,14,4.90
2018,12,09,10,15,1.50
2018,12,09,10,16,1.40
2018,12,09,10,17,0.00
2018,12,09,10,18,1.90
2018,12,09,10,19,1.10
2018,12,09,10,20,3.90
2018,12,09,10,21,0.20
2018,12,09,10,22,2.20
2018,12,09,10,23,6.40
2018,12,09,10,24,10.10
2018,12,09,10,25,5.80
2018,12,09,10,26,7.30
2018,12,09,10,27,4.20
2018,12,09,10,28,5.00
2018,12,09,10,29,0.10
2018,12,09,10,30,0.00
2018,12,09,10,31,0.30
2018,12,09,10,32,0.70
2018,12,09,10,33,4.80
2018,12,09,10,34,2.80
2018,12,09,10,35,2.40
2018,12,09,10,36,0.00
2018,12,09,10,37,0.00
2018,12,09,10,38,1.20
2018,12,09,10,39,5.30
2018,12,09,10,40,0.00
2018,12,09,10,41,3.10
2018,12,09,10,42,4.20
2018,12,09,10,43,5.40
2018,12,09,10,44,3.90
2018,12,09,10,45,5.70
2018,12,09,10,46,2.60
2018,12,09,10,47,6.80
2018,12,09,10,48,10.40
2018,12,09,10,49,6.50
2018,12,09,10,50,5.90
2018,12,09,10,51,9.40
2018,12,09,10,52,6.50
2018,12,09,10,53,11.00
2018,12,09,10,54,6.30
2018,12,09,10,55,4.90
2018,12,09,10,56,3.00
2018,12,09,10,57,3.70
2018,12,09,10,58,5.70
2018,12,09,10,59,5.20
2018,12,09,11,00,8.50
2018,12,09,11,01,4.10
2018,12,09,11,02,1.10
2018,12,09,11,03,4.40
2018,12,09,11,04,6.40
2018,12,09,11,05,5.90
2018,12,09,11,06,12.30
2018,12,09,11,07,9.30
2018,12,09,11,08,8.90
2018,12,09,11,09,7.80
2018,12,09,11,10,11.00
2018,12,09,11,11,1.90
2018,12,09,11,12,5.20
2018,12,09,11,13,5.70
2018,12,09,11,14,4.60
2018,12,09,11,15,4.60
2018,12,09,11,16,0.30
2018,12,09,11,17,5.10
2018,12,09,11,18,5.60
2018,12,09,11,19,9.10
2018,12,09,11,20,8.20
2018,12,09,11,21,7.90
2018,12,09,11,22,4.10
2018,12,09,11,23,7.60
2018,12,09,11,24,2.80
2018,12,09,11,25,5.70
2018,12,09,11,26,4.90
2018,12,09,11,27,8.00
2018,12,09,11,28,7.00
2018,12,09,11,29,7.40
2018,12,09,11,30,10.00
2018,12,09,11,31,10.10
2018,12,09,11,32,11.00
2018,12,09,11,33,6.60
2018,12,09,11,34,9.90
2018,12,09,11,35,9.90
2018,12,09,11,36,10.10
2018,12,09,11,37,9.60
2018,12,09,11,38,6.40
2018,12,09,11,39,6.00
2018,12,09,11,40,5.40
2018,12,09,11,41,6.00
2018,12,09,11,42,10.00
2018,12,09,11,43,6.10
2018,12,09,11,44,6.50
2018,12,09,11,45,5.10
2018,12,09,11,46,5.50
2018,12,09,11,47,7.80
2018,12,09,11,48,4.90
2018,12,09,11,49,7.60
2018,12,09,11,50,0.70
2018,12,09,11,51,2.30
2018,12,09,11,52,5.10
2018,12,09,11,53,9.60
2018,12,09,11,54,6.00
2018,12,09,11,55,5.50
2018,12,09,11,56,10.60
2018,12,09,11,57,3.80
2018,12,09,11,58,2.50
2018,12,09,11,59,10.10
2018,12,09,12,00,5.90
2018,12,09,12,01,5.10
2018,12,09,12,02,6.40
2018,12,09,12,03,11.60
2018,12,09,12,04,9.50
2018,12,09,12,05,8.20
2018,12,09,12,06,4.30
2018,12,09,12,07,3.90
2018,12,09,12,08,9.50
2018,12,09,12,09,7.20
2018,12,09,12,10,10.60
2018,12,09,12,11,7.60
2018,12,09,12,12,6.10
2018,12,09,12,13,11.30
2018,12,09,12,14,8.60
2018,12,09,12,15,9.80
2018,12,09,12,16,6.80
2018,12,09,12,17,8.70
2018,12,09,12,18,6.90
2018,12,09,12,19,6.10
2018,12,09,12,20,9.20
2018,12,09,12,21,6.70
2018,12,09,12,22,6.50
2018,12,09,12,23,7.80
2018,12,09,12,24,3.80
2018,12,09,12,25,9.40
2018,12,09,12,26,4.80
2018,12,09,12,27,1.70
2018,12,09,12,28,8.60
2018,12,09,12,29,12.60
2018,12,09,12,30,9.20
2018,12,09,12,31,7.60
2018,12,09,12,32,3.70
2018,12,09,12,33,7.70
2018,12,09,12,34,8.00
2018,12,09,12,35,9.70
2018,12,09,12,36,6.10
2018,12,09,12,37,10.90
2018,12,09,12,38,9.70
2018,12,09,12,39,11.00
2018,12,09,12,40,7.20
2018,12,09,12,41,6.60
2018,12,09,12,42,7.40
2018,12,09,12,43,12.00
2018,12,09,12,44,6.40
2018,12,09,12,45,12.40
2018,12,09,12,46,11.30
2018,12,09,12,47,8.50
2018,12,09,12,48,7.80
2018,12,09,12,49,12.50
2018,12,09,12,50,9.70
2018,12,09,12,51,6.90
2018,12,09,12,52,7.20
2018,12,09,12,53,4.80
2018,12,09,12,54,7.90
2018,12,09,12,55,11.60
2018,12,09,12,56,8.50
2018,12,09,12,57,8.40
2018,12,09,12,58,11.10
2018,12,09,12,59,6.40
2018,12,09,13,00,8.70
2018,12,09,13,01,8.80
2018,12,09,13,02,11.70
2018,12,09,13,03,12.90
2018,12,09,13,04,10.40
2018,12,09,13,05,8.00
2018,12,09,13,06,8.60
2018,12,09,13,07,9.70
2018,12,09,13,08,12.00
2018,12,09,13,09,11.60
2018,12,09,13,10,8.90
2018,12,09,13,11,8.90
2018,12,09,13,12,9.30
2018,12,09,13,13,14.60
2018,12,09,13,14,7.20
2018,12,09,13,15,11.70
2018,12,09,13,16,9.40
2018,12,09,13,17,9.30
2018,12,09,13,18,7.30
2018,12,09,13,19,12.10
2018,12,09,13,20,12.10
2018,12,09,13,21,8.40
2018,12,09,13,22,10.30
2018,12,09,13,23,6.50
2018,12,09,13,24,4.80
2018,12,09,13,25,13.00
2018,12,09,13,26,6.60
2018,12,09,13,27,6.20
2018,12,09,13,28,4.30
2018,12,09,13,29,10.10
2018,12,09,13,30,11.00
2018,12,09,13,31,9.40
2018,12,09,13,32,2.10
2018,12,09,13,33,2.50
2018,12,09,13,34,8.00
2018,12,09,13,35,4.80
2018,12,09,13,36,5.90
2018,12,09,13,37,11.40
2018,12,09,13,38,8.80
2018,12,09,13,39,10.30
2018,12,09,13,40,5.70
2018,12,09,13,41,6.20
2018,12,09,13,42,12.50
2018,12,09,13,43,10.10
2018,12,09,13,44,10.20
2018,12,09,13,45,9.30
2018,12,09,13,46,3.80
2018,12,09,13,47,5.70
2018,12,09,13,48,3.90
2018,12,09,13,49,4.60
2018,12,09,13,50,4.10
2018,12,09,13,51,5.80
2018,12,09,13,52,2.40
2018,12,09,13,53,11.90
2018,12,09,13,54,12.00
2018,12,09,13,55,10.90
2018,12,09,13,56,5.30
2018,12,09,13,57,8.90
2018,12,09,13,58,11.70
2018,12,09,13,59,3.90
2018,12,09,14,00,4.90
2018,12,09,14,01,1.40
2018,12,09,14,02,8.80
2018,12,09,14,03,10.80
2018,12,09,14,04,4.70
2018,12,09,14,05,1.70
2018,12,09,14,06,3.50
2018,12,09,14,07,3.40
2018,12,09,14,08,3.10
2018,12,09,14,09,6.90
2018,12,09,14,10,6.20
2018,12,09,14,11,5.60
2018,12,09,14,12,6.80
2018,12,09,14,13,7.30
2018,12,09,14,14,8.40
2018,12,09,14,15,5.80
2018,12,09,14,16,6.30
2018,12,09,14,17,5.20
2018,12,09,14,18,8.10
2018,12,09,14,19,3.50
2018,12,09,14,20,6.10
2018,12,09,14,21,2.10
2018,12,09,14,22,5.10
2018,12,09,14,23,1.40
2018,12,09,14,24,2.30
2018,12,09,14,25,7.00
2018,12,09,14,26,6.80
2018,12,09,14,27,7.60
2018,12,09,14,28,8.10
2018,12,09,14,29,7.90
2018,12,09,14,30,4.70
2018,12,09,14,31,7.70
2018,12,09,14,32,8.60
2018,12,09,14,33,3.60
2018,12,09,14,34,9.00
2018,12,09,14,35,10.10
2018,12,09,14,36,6.70
2018,12,09,14,37,6.80
2018,12,09,14,38,5.00
2018,12,09,14,39,7.50
2018,12,09,14,40,2.60
2018,12,09,14,41,7.80
2018,12,09,14,42,5.60
2018,12,09,14,43,4.60
2018,12,09,14,44,6.10
2018,12,09,14,45,3.60
2018,12,09,14,46,3.40
2018,12,09,14,47,0.20
2018,12,09,14,48,1.00
2018,12,09,14,49,7.50
2018,12,09,14,50,2.80
2018,12,09,14,51,6.50
2018,12,09,14,52,10.70
2018,12,09,14,53,8.60
2018,12,09,14,54,5.90
2018,12,09,14,55,5.60
2018,12,09,14,56,9.50
2018,12,09,14,57,7.80
2018,12,09,14,58,8.20
2018,12,09,14,59,6.00
2018,12,09,15,00,5.20
2018,12,09,15,01,6.70
2018,12,09,15,02,6.80
2018,12,09,15,03,6.90
2018,12,09,15,04,3.20
2018,12,09,15,05,2.70
2018,12,09,15,06,6.10
2018,12,09,15,07,1.40
2018,12,09,15,08,6.60
2018,12,09,15,09,5.60
2018,12,09,15,10,3.90
2018,12,09,15,11,4.20
2018,12,09,15,12,0.20
2018,12,09,15,13,0.00
2018,12,09,15,14,4.80
2018,12,09,15,15,7.70
2018,12,09,15,16,3.10
2018,12,09,15,17,6.20
2018,12,09,15,18,9.10
2018,12,09,15,19,0.00
2018,12,09,15,20,1.90
2018,12,09,15,21,7.30
2018,12,09,15,22,4.50
2018,12,09,15,23,8.50
2018,12,09,15,24,8.40
2018,12,09,15,25,8.60
2018,12,09,15,26,5.70
2018,12,09,15,27,8.20
2018,12,09,15,28,5.70
2018,12,09,15,29,5.40
2018,12,09,15,30,5.50
2018,12,09,15,31,8.80
2018,12,09,15,32,6.30
2018,12,09,15,33,3.90
2018,12,09,15,34,2.40
2018,12,09,15,35,5.10
2018,12,09,15,36,4.90
2018,12,09,15,37,8.70
2018,12,09,15,38,4.20
2018,12,09,15,39,4.90
2018,12,09,15,40,1.90
2018,12,09,15,41,0.10
2018,12,09,15,42,6.60
2018,12,09,15,43,3.80
2018,12,09,15,44,3.60
2018,12,09,15,45,7.90
2018,12,09,15,46,0.20
2018,12,09,15,47,4.20
2018,12,09,15,48,1.80
2018,12,09,15,49,6.70
2018,12,09,15,50,2.30
2018,12,09,15,51,0.40
2018,12,09,15,52,3.10
2018,12,09,15,53,0.50
2018,12,09,15,54,8.10
2018,12,09,15,55,7.90
2018,12,09,15,56,4.60
2018,12,09,15,57,12.80
2018,12,09,15,58,7.20
2018,12,09,15,59,5.20
2018,12,09,16,00,2.30
2018,12,09,16,01,3.60
2018,12,09,16,02,4.70
2018,12,09,16,03,6.40
2018,12,09,16,04,9.30
2018,12,09,16,05,4.60
2018,12,09,16,06,2.30
2018,12,09,16,07,3.40
2018,12,09,16,08,4.10
2018,12,09,16,09,5.40
2018,12,09,16,10,3.40
2018,12,09,16,11,1.90
2018,12,09,16,12,1.10
2018,12,09,16,13,0.00
2018,12,09,16,14,7.10
2018,12,09,16,15,4.30
2018,12,09,16,16,5.40
2018,12,09,16,17,7.00
2018,12,09,16,18,6.00
2018,12,09,16,19,5.30
2018,12,09,16,20,0.90
2018,12,09,16,21,2.70
2018,12,09,16,22,2.50
2018,12,09,16,23,0.00
2018,12,09,16,24,0.00
2018,12,09,16,25,0.00
2018,12,09,16,26,0.00
2018,12,09,16,27,0.00
2018,12,09,16,28,3.20
2018,12,09,16,29,1.50
2018,12,09,16,30,1.80
2018,12,09,16,31,0.00
2018,12,09,16,32,1.80
2018,12,09,16,33,3.80
2018,12,09,16,34,0.00
2018,12,09,16,35,0.00
2018,12,09,16,36,0.00
2018,12,09,16,37,0.00
2018,12,09,16,38,0.00
2018,12,09,16,39,0.00
2018,12,09,16,40,0.00
2018,12,09,16,41,0.10
2018,12,09,16,42,2.70
2018,12,09,16,43,1.50
2018,12,09,16,44,2.30
2018,12,09,16,45,3.30
2018,12,09,16,46,2.50
2018,12,09,16,47,0.00
2018,12,09,16,48,0.00
2018,12,09,16,49,0.20
2018,12,09,16,50,0.80
2018,12,09,16,51,0.60
2018,12,09,16,52,0.00
2018,12,09,16,53,2.10
2018,12,09,16,54,0.00
2018,12,09,16,55,0.00
2018,12,09,16,56,0.00
2018,12,09,16,57,0.00
2018,12,09,16,58,3.10
2018,12,09,16,59,0.00
2018,12,09,17,00,0.00
2018,12,09,17,01,0.00
2018,12,09,17,02,0.00
2018,12,09,17,03,0.00
2018,12,09,17,04,1.40
2018,12,09,17,05,0.00
2018,12,09,17,06,0.00
2018,12,09,17,07,0.00
2018,12,09,17,08,4.10
2018,12,09,17,09,2.20
2018,12,09,17,10,0.00
2018,12,09,17,11,0.00
2018,12,09,17,12,0.00
2018,12,09,17,13,2.10
2018,12,09,17,14,7.00
2018,12,09,17,15,2.10
2018,12,09,17,16,0.00
2018,12,09,17,17,2.70
2018,12,09,17,18,1.10
2018,12,09,17,19,0.00
2018,12,09,17,20,0.00
2018,12,09,17,21,0.00
2018,12,09,17,22,0.00
2018,12,09,17,23,0.00
2018,12,09,17,24,0.00
2018,12,09,17,25,0.00
2018,12,09,17,26,0.00
2018,12,09,17,27,0.00
2018,12,09,17,28,0.00
2018,12,09,17,29,0.00
2018,12,09,17,30,1.10
2018,12,09,17,31,0.00
2018,12,09,17,32,0.00
2018,12,09,17,33,0.00
2018,12,09,17,34,0.10
2018,12,09,17,35,0.00
2018,12,09,17,36,0.00
2018,12,09,17,37,0.00
2018,12,09,17,38,0.00
2018,12,09,17,39,0.00
2018,12,09,17,40,0.00
2018,12,09,17,41,0.00
2018,12,09,17,42,0.00
2018,12,09,17,43,0.00
2018,12,09,17,44,0.00
2018,12,09,17,45,0.00